Skip Page Navigation
NASA JPL Caltech
NASA Logo - Jet Propulsion Laboratory + View the NASA Portal
+ Center for Near-Earth Object Studies
JPL Home Earth Solar System Stars & Galaxies Technology
JPL Solar System Dynamics
BODIES ORBITS EPHEMERIDES TOOLS PHYSICAL DATA DISCOVERY FAQ SITE MAP
JPL Small-Body Database Browser
Search: [ help ]  
11837 (1986 GD)
Classification: Main-belt Asteroid          SPK-ID: 2011837
Ephemeris | Orbit Diagram | Orbital Elements | Mission Design | Physical Parameters | Discovery Circumstances ]

[ show orbit diagram ]
Orbital Elements at Epoch 2459200.5 (2020-Dec-17.0) TDB
Reference: JPL 31 (heliocentric ecliptic J2000)
 Element Value Uncertainty (1-sigma)   Units 
e .187815552059749 1.5095e-08  
a 2.459620643127308 9.5958e-09 au
q 1.997665634180797 3.9378e-08 au
i 7.351535014522901 1.0708e-06 deg
node 45.07202405102808 6.6312e-06 deg
peri 113.6976070966447 8.1997e-06 deg
M 22.27579118781692 7.2372e-06 deg
tp 2459113.317110587840
(2020-Sep-20.81711059)
2.8116e-05 TDB
period 1408.966349331878
3.86
8.2453e-06
2.257e-08
d
yr
n .2555064570354782 1.4952e-09 deg/d
Q 2.921575652073817 1.1398e-08 au
  Orbit Determination Parameters
   # obs. used (total)      1965  
   data-arc span      12758 days (34.93 yr)  
   first obs. used      1986-04-02  
   last obs. used      2021-03-07  
   planetary ephem.      DE441  
   SB-pert. ephem.      SB441-N16  
   condition code      0  
   norm. resid. RMS      .46555  
   source      ORB  
   producer      Otto Matic  
   solution date      2021-Apr-12 22:58:53  

Additional Information
 Earth MOID = 1.01904 au 
 Jupiter MOID = 2.08665 au 
 T_jup = 3.455 
[ show covariance matrix ]

Ephemeris | Orbit Diagram | Orbital Elements | Mission Design | Physical Parameters | Discovery Circumstances ]

Physical Parameter Table
Parameter Symbol Value Units Sigma Reference Notes
absolute magnitude H 14.02   n/a E2021B10  
diameter diameter 4.754 km 0.426 urn:nasa:pds:neowise_diameters_albedos::2.0[mainbelt] (http://adsabs.harvard.edu/abs/2011ApJ...741...68M)  
geometric albedo albedo 0.236   0.115 urn:nasa:pds:neowise_diameters_albedos::2.0[mainbelt] (http://adsabs.harvard.edu/abs/2011ApJ...741...68M)  

11837 (1986 GD)          Discovered 1986-Apr-02 by Jensen, P. at Brorfelde
Reference: 19991026/Numbers.arcLast Updated: 2004-04-19

Alternate Designations
 1986 GD = 1988 UR 
Ephemeris | Orbit Diagram | Orbital Elements | Mission Design | Physical Parameters | Discovery Circumstances ]
ABOUT SSD CREDITS/AWARDS PRIVACY/COPYRIGHT GLOSSARY LINKS
FirstGov 2021-Apr-16 17:27 UT
(server date/time)  
NASA Home Page
Site Manager:   Ryan S. Park
Webmaster  Alan B. Chamberlin